| time (UTC) | temp C | wind direction | speed KPH | gust KPH | rain 1hr cm | rain 24hr cm | rain mn cm | humidity % | barometer mb |
| 20260510221019 | 31 | 312 | 8.0 | 16.1 | 0.00 | 0.00 | 0.00 | 11 | 1015.7 |
| 20260510220518 | 31 | 265 | 8.0 | 12.9 | 0.00 | 0.00 | 0.00 | 11 | 1015.8 |
| 20260510220020 | 32 | 215 | 6.4 | 14.5 | 0.00 | 0.00 | 0.00 | 12 | 1015.9 |
| 20260510215518 | 32 | 271 | 8.0 | 17.7 | 0.00 | 0.00 | 0.00 | 12 | 1015.8 |
| 20260510215017 | 32 | 305 | 9.7 | 17.7 | 0.00 | 0.00 | 0.00 | 12 | 1015.7 |
| 20260510214517 | 31 | 264 | 4.8 | 12.9 | 0.00 | 0.00 | 0.00 | 12 | 1015.9 |
| 20260510214017 | 32 | 214 | 6.4 | 12.9 | 0.00 | 0.00 | 0.00 | 11 | 1015.9 |
| 20260510213517 | 32 | 159 | 4.8 | 14.5 | 0.00 | 0.00 | 0.00 | 12 | 1016.0 |
| 20260510213036 | 31 | 211 | 6.4 | 14.5 | 0.00 | 0.00 | 0.00 | 12 | 1016.1 |
| 20260510212521 | 32 | 319 | 6.4 | 17.7 | 0.00 | 0.00 | 0.00 | 11 | 1016.1 |
| 20260510212020 | 32 | 236 | 9.7 | 19.3 | 0.00 | 0.00 | 0.00 | 12 | 1016.1 |
| 20260510211526 | 32 | 321 | 6.4 | 19.3 | 0.00 | 0.00 | 0.00 | 12 | 1016.1 |
| 20260510211017 | 33 | 351 | 6.4 | 12.9 | 0.00 | 0.00 | 0.00 | 11 | 1016.2 |
| 20260510210517 | 33 | 28 | 4.8 | 14.5 | 0.00 | 0.00 | 0.00 | 11 | 1016.1 |
| 20260510210033 | 33 | 55 | 6.4 | 14.5 | 0.00 | 0.00 | 0.00 | 11 | 1016.2 |
| 20260510205517 | 32 | 14 | 8.0 | 12.9 | 0.00 | 0.00 | 0.00 | 12 | 1016.1 |
| 20260510205016 | 32 | 293 | 3.2 | 8.0 | 0.00 | 0.00 | 0.00 | 12 | 1016.3 |
| 20260510204516 | 32 | 118 | 3.2 | 14.5 | 0.00 | 0.00 | 0.00 | 12 | 1016.3 |
| 20260510204016 | 32 | 358 | 6.4 | 14.5 | 0.00 | 0.00 | 0.00 | 11 | 1016.3 |
| 20260510203515 | 33 | 67 | 3.2 | 11.3 | 0.00 | 0.00 | 0.00 | 11 | 1016.3 |
| 20260510203016 | 33 | 18 | 1.6 | 12.9 | 0.00 | 0.00 | 0.00 | 13 | 1016.3 |
| 20260510202514 | 32 | 235 | 3.2 | 12.9 | 0.00 | 0.00 | 0.00 | 12 | 1016.4 |
| 20260510202012 | 32 | 184 | 3.2 | 12.9 | 0.00 | 0.00 | 0.00 | 11 | 1016.4 |
| 20260510201513 | 32 | 156 | 3.2 | 14.5 | 0.00 | 0.00 | 0.00 | 11 | 1016.4 |
| 20260510201016 | 32 | 319 | 4.8 | 17.7 | 0.00 | 0.00 | 0.00 | 12 | 1016.5 |
| 20260510200511 | 32 | 341 | 8.0 | 17.7 | 0.00 | 0.00 | 0.00 | 11 | 1016.5 |
| 20260510200010 | 32 | 248 | 8.0 | 16.1 | 0.00 | 0.00 | 0.00 | 12 | 1016.5 |
| 20260510195512 | 32 | 290 | 8.0 | 16.1 | 0.00 | 0.00 | 0.00 | 12 | 1016.5 |
| 20260510195009 | 32 | 334 | 1.6 | 16.1 | 0.00 | 0.00 | 0.00 | 11 | 1016.5 |
| 20260510194509 | 32 | 338 | 4.8 | 16.1 | 0.00 | 0.00 | 0.00 | 12 | 1016.5 |
| 20260510194011 | 32 | 18 | 6.4 | 11.3 | 0.00 | 0.00 | 0.00 | 11 | 1016.6 |
| 20260510193509 | 32 | 30 | 4.8 | 11.3 | 0.00 | 0.00 | 0.00 | 12 | 1016.6 |
| 20260510193008 | 32 | 325 | 4.8 | 14.5 | 0.00 | 0.00 | 0.00 | 11 | 1016.6 |
| 20260510192513 | 32 | 190 | 3.2 | 14.5 | 0.00 | 0.00 | 0.00 | 12 | 1016.6 |
| 20260510192006 | 32 | 318 | 3.2 | 12.9 | 0.00 | 0.00 | 0.00 | 12 | 1016.6 |
| 20260510191507 | 32 | 192 | 8.0 | 14.5 | 0.00 | 0.00 | 0.00 | 12 | 1016.7 |
| 20260510191006 | 32 | 194 | 4.8 | 20.9 | 0.00 | 0.00 | 0.00 | 12 | 1016.7 |
| 20260510190506 | 32 | 180 | 11.3 | 20.9 | 0.00 | 0.00 | 0.00 | 13 | 1016.4 |
| 20260510190005 | 32 | 112 | 1.6 | 11.3 | 0.00 | 0.00 | 0.00 | 12 | 1016.8 |
| 20260510185505 | 32 | 271 | 1.6 | 11.3 | 0.00 | 0.00 | 0.00 | 13 | 1016.8 |
| 20260510185005 | 32 | 336 | 1.6 | 12.9 | 0.00 | 0.00 | 0.00 | 12 | 1016.8 |
| 20260510184503 | 32 | 243 | 4.8 | 9.7 | 0.00 | 0.00 | 0.00 | 12 | 1016.9 |
| 20260510184003 | 32 | 23 | 1.6 | 9.7 | 0.00 | 0.00 | 0.00 | 14 | 1016.9 |
| 20260510183504 | 32 | 73 | 0.0 | 11.3 | 0.00 | 0.00 | 0.00 | 13 | 1016.9 |
| 20260510183002 | 31 | 146 | 4.8 | 11.3 | 0.00 | 0.00 | 0.00 | 13 | 1017.0 |
| 20260510182500 | 31 | 230 | 1.6 | 16.1 | 0.00 | 0.00 | 0.00 | 12 | 1017.1 |
| 20260510182059 | 31 | 327 | 6.4 | 16.1 | 0.00 | 0.00 | 0.00 | 13 | 1017.1 |
| 20260510181634 | 31 | 286 | 6.4 | 14.5 | 0.00 | 0.00 | 0.00 | 13 | 1017.0 |
| 20260510181058 | 31 | 308 | 3.2 | 16.1 | 0.00 | 0.00 | 0.00 | 12 | 1017.1 |
| 20260510180558 | 31 | 355 | 6.4 | 22.5 | 0.00 | 0.00 | 0.00 | 12 | 1017.1 |
| 20260510180104 | 31 | 333 | 8.0 | 14.5 | 0.00 | 0.00 | 0.00 | 13 | 1017.1 |
| 20260510175558 | 32 | 13 | 6.4 | 12.9 | 0.00 | 0.00 | 0.00 | 13 | 1017.1 |
| 20260510175053 | 32 | 56 | 4.8 | 12.9 | 0.00 | 0.00 | 0.00 | 14 | 1017.1 |
| 20260510174558 | 31 | 359 | 8.0 | 12.9 | 0.00 | 0.00 | 0.00 | 13 | 1017.2 |
| 20260510174050 | 31 | 5 | 6.4 | 11.3 | 0.00 | 0.00 | 0.00 | 14 | 1017.2 |
| 20260510173551 | 31 | 357 | 4.8 | 11.3 | 0.00 | 0.00 | 0.00 | 14 | 1017.2 |
| 20260510173047 | 31 | 22 | 4.8 | 17.7 | 0.00 | 0.00 | 0.00 | 14 | 1017.2 |
| 20260510172546 | 31 | 20 | 8.0 | 17.7 | 0.00 | 0.00 | 0.00 | 13 | 1017.2 |
| 20260510172045 | 31 | 38 | 6.4 | 14.5 | 0.00 | 0.00 | 0.00 | 15 | 1017.1 |
| 20260510171545 | 30 | 30 | 6.4 | 14.5 | 0.00 | 0.00 | 0.00 | 15 | 1017.1 |
| 20260510171042 | 30 | 357 | 6.4 | 17.7 | 0.00 | 0.00 | 0.00 | 13 | 1017.1 |
| 20260510170541 | 30 | 349 | 8.0 | 17.7 | 0.00 | 0.00 | 0.00 | 14 | 1017.1 |
| 20260510170042 | 30 | 350 | 8.0 | 22.5 | 0.00 | 0.00 | 0.00 | 13 | 1017.0 |
| 20260510165541 | 31 | 7 | 9.7 | 22.5 | 0.00 | 0.00 | 0.00 | 14 | 1017.0 |
| 20260510165037 | 31 | 5 | 8.0 | 16.1 | 0.00 | 0.00 | 0.00 | 14 | 1017.0 |
| 20260510164541 | 30 | 51 | 6.4 | 17.7 | 0.00 | 0.00 | 0.00 | 15 | 1016.9 |
| 20260510164035 | 31 | 3 | 8.0 | 17.7 | 0.00 | 0.00 | 0.00 | 14 | 1016.8 |
| 20260510163534 | 30 | 40 | 11.3 | 17.7 | 0.00 | 0.00 | 0.00 | 15 | 1016.8 |
| 20260510163032 | 30 | 64 | 4.8 | 16.1 | 0.00 | 0.00 | 0.00 | 15 | 1016.8 |
| 20260510162532 | 30 | 70 | 6.4 | 16.1 | 0.00 | 0.00 | 0.00 | 16 | 1016.8 |
| 20260510162029 | 29 | 41 | 6.4 | 20.9 | 0.00 | 0.00 | 0.00 | 16 | 1016.7 |
| 20260510161532 | 29 | 43 | 11.3 | 25.7 | 0.00 | 0.00 | 0.00 | 15 | 1016.7 |
| 20260510161026 | 28 | 59 | 11.3 | 25.7 | 0.00 | 0.00 | 0.00 | 15 | 1016.7 |
| 20260510160525 | 28 | 71 | 9.7 | 24.1 | 0.00 | 0.00 | 0.00 | 16 | 1016.7 |
| 20260510160033 | 28 | 355 | 12.9 | 29.0 | 0.00 | 0.00 | 0.00 | 16 | 1016.7 |
| 20260510155527 | 28 | 32 | 14.5 | 29.0 | 0.00 | 0.00 | 0.00 | 16 | 1016.7 |
| 20260510155023 | 28 | 5 | 11.3 | 22.5 | 0.00 | 0.00 | 0.00 | 16 | 1016.6 |
| 20260510154519 | 28 | 358 | 9.7 | 17.7 | 0.00 | 0.00 | 0.00 | 16 | 1016.5 |
| 20260510154017 | 28 | 11 | 8.0 | 22.5 | 0.00 | 0.00 | 0.00 | 17 | 1016.5 |
| 20260510153520 | 28 | 13 | 11.3 | 24.1 | 0.00 | 0.00 | 0.00 | 17 | 1016.4 |
| 20260510153015 | 27 | 12 | 11.3 | 24.1 | 0.00 | 0.00 | 0.00 | 17 | 1016.3 |
| 20260510152513 | 27 | 17 | 8.0 | 20.9 | 0.00 | 0.00 | 0.00 | 17 | 1016.3 |
| 20260510152013 | 27 | 36 | 11.3 | 22.5 | 0.00 | 0.00 | 0.00 | 17 | 1016.3 |
| 20260510151511 | 27 | 40 | 8.0 | 22.5 | 0.00 | 0.00 | 0.00 | 17 | 1016.3 |
| 20260510151013 | 26 | 17 | 11.3 | 22.5 | 0.00 | 0.00 | 0.00 | 17 | 1016.2 |
| 20260510150508 | 26 | 51 | 14.5 | 22.5 | 0.00 | 0.00 | 0.00 | 17 | 1016.2 |
| 20260510150006 | 26 | 329 | 9.7 | 19.3 | 0.00 | 0.00 | 0.00 | 18 | 1016.2 |
| 20260510145504 | 26 | 44 | 9.7 | 17.7 | 0.00 | 0.00 | 0.00 | 18 | 1016.2 |
| 20260510145003 | 25 | 40 | 8.0 | 17.7 | 0.00 | 0.00 | 0.00 | 19 | 1016.1 |
| 20260510144503 | 25 | 16 | 9.7 | 17.7 | 0.00 | 0.00 | 0.00 | 19 | 1016.1 |
| 20260510144106 | 24 | 331 | 6.4 | 17.7 | 0.00 | 0.00 | 0.00 | 19 | 1016.1 |
| 20260510143559 | 24 | 49 | 8.0 | 17.7 | 0.00 | 0.00 | 0.00 | 19 | 1016.1 |
| 20260510143110 | 23 | 65 | 6.4 | 17.7 | 0.00 | 0.00 | 0.00 | 20 | 1016.0 |
| 20260510142557 | 23 | 40 | 9.7 | 16.1 | 0.00 | 0.00 | 0.00 | 19 | 1016.0 |
| 20260510142055 | 23 | 33 | 8.0 | 17.7 | 0.00 | 0.00 | 0.00 | 20 | 1016.0 |
| 20260510141556 | 23 | 17 | 6.4 | 20.9 | 0.00 | 0.00 | 0.00 | 20 | 1015.8 |
| 20260510141054 | 22 | 15 | 11.3 | 20.9 | 0.00 | 0.00 | 0.00 | 20 | 1015.8 |
| 20260510140554 | 22 | 355 | 8.0 | 17.7 | 0.00 | 0.00 | 0.00 | 20 | 1015.8 |
| 20260510140052 | 22 | 359 | 9.7 | 17.7 | 0.00 | 0.00 | 0.00 | 20 | 1015.8 |
| 20260510135550 | 22 | 41 | 6.4 | 16.1 | 0.00 | 0.00 | 0.00 | 20 | 1015.7 |
| 20260510135050 | 22 | 359 | 9.7 | 17.7 | 0.00 | 0.00 | 0.00 | 20 | 1015.6 |
| 20260510134550 | 22 | 29 | 9.7 | 17.7 | 0.00 | 0.00 | 0.00 | 20 | 1015.6 |
| 20260510134048 | 22 | 7 | 9.7 | 17.7 | 0.00 | 0.00 | 0.00 | 20 | 1015.6 |
| 20260510133553 | 21 | 7 | 8.0 | 19.3 | 0.00 | 0.00 | 0.00 | 20 | 1015.6 |
| 20260510133048 | 21 | 48 | 8.0 | 19.3 | 0.00 | 0.00 | 0.00 | 20 | 1015.6 |
| 20260510132547 | 21 | 17 | 11.3 | 19.3 | 0.00 | 0.00 | 0.00 | 20 | 1015.7 |
| 20260510132046 | 21 | 16 | 9.7 | 16.1 | 0.00 | 0.00 | 0.00 | 21 | 1015.7 |
| 20260510131546 | 21 | 26 | 8.0 | 16.1 | 0.00 | 0.00 | 0.00 | 21 | 1015.7 |
| 20260510131046 | 20 | 13 | 8.0 | 14.5 | 0.00 | 0.00 | 0.00 | 22 | 1015.6 |
| 20260510130545 | 20 | 23 | 4.8 | 12.9 | 0.00 | 0.00 | 0.00 | 22 | 1015.5 |
| 20260510130044 | 20 | 3 | 8.0 | 12.9 | 0.00 | 0.00 | 0.00 | 22 | 1015.5 |
| 20260510125544 | 20 | 351 | 4.8 | 12.9 | 0.00 | 0.00 | 0.00 | 23 | 1015.5 |
| 20260510125043 | 19 | 47 | 6.4 | 12.9 | 0.00 | 0.00 | 0.00 | 23 | 1015.3 |
| 20260510124544 | 20 | 11 | 6.4 | 14.5 | 0.00 | 0.00 | 0.00 | 23 | 1015.2 |
| 20260510124040 | 20 | 5 | 6.4 | 14.5 | 0.00 | 0.00 | 0.00 | 22 | 1015.1 |
| 20260510123540 | 20 | 19 | 6.4 | 14.5 | 0.00 | 0.00 | 0.00 | 22 | 1015.2 |
| 20260510123038 | 20 | 31 | 6.4 | 12.9 | 0.00 | 0.00 | 0.00 | 22 | 1015.2 |
| 20260510122537 | 20 | 15 | 6.4 | 12.9 | 0.00 | 0.00 | 0.00 | 22 | 1015.1 |
| 20260510122036 | 20 | 5 | 8.0 | 12.9 | 0.00 | 0.00 | 0.00 | 22 | 1015.1 |
| 20260510121537 | 20 | 15 | 4.8 | 11.3 | 0.00 | 0.00 | 0.00 | 22 | 1014.9 |
| 20260510121036 | 20 | 22 | 3.2 | 11.3 | 0.00 | 0.00 | 0.00 | 22 | 1014.9 |
| 20260510120534 | 20 | 32 | 4.8 | 9.7 | 0.00 | 0.00 | 0.00 | 22 | 1014.8 |
| 20260510120035 | 20 | 19 | 1.6 | 9.7 | 0.00 | 0.00 | 0.00 | 22 | 1014.8 |
| 20260510115534 | 20 | 55 | 4.8 | 11.3 | 0.00 | 0.00 | 0.00 | 22 | 1014.6 |
| 20260510115035 | 20 | 23 | 3.2 | 12.9 | 0.00 | 0.00 | 0.00 | 21 | 1014.6 |
| 20260510114538 | 20 | 49 | 1.6 | 12.9 | 0.00 | 0.00 | 0.00 | 21 | 1014.6 |
| 20260510114034 | 20 | 34 | 3.2 | 11.3 | 0.00 | 0.00 | 0.00 | 21 | 1014.6 |
| 20260510113531 | 21 | 38 | 3.2 | 11.3 | 0.00 | 0.00 | 0.00 | 21 | 1014.5 |
| 20260510113031 | 21 | 55 | 4.8 | 11.3 | 0.00 | 0.00 | 0.00 | 20 | 1014.5 |
| 20260510112531 | 21 | 61 | 3.2 | 11.3 | 0.00 | 0.00 | 0.00 | 20 | 1014.5 |
| 20260510112032 | 21 | 64 | 4.8 | 11.3 | 0.00 | 0.00 | 0.00 | 20 | 1014.4 |
| 20260510111531 | 21 | 37 | 4.8 | 11.3 | 0.00 | 0.00 | 0.00 | 19 | 1014.5 |
| 20260510111029 | 21 | 49 | 3.2 | 9.7 | 0.00 | 0.00 | 0.00 | 20 | 1014.5 |
| 20260510110530 | 21 | 53 | 3.2 | 11.3 | 0.00 | 0.00 | 0.00 | 20 | 1014.4 |
| 20260510110033 | 22 | 24 | 3.2 | 11.3 | 0.00 | 0.00 | 0.00 | 19 | 1014.4 |
| 20260510105531 | 22 | 11 | 4.8 | 9.7 | 0.00 | 0.00 | 0.00 | 19 | 1014.3 |
| 20260510105027 | 22 | 7 | 4.8 | 9.7 | 0.00 | 0.00 | 0.00 | 19 | 1014.3 |
| 20260510104527 | 21 | 16 | 3.2 | 11.3 | 0.00 | 0.00 | 0.00 | 19 | 1014.2 |
| 20260510104027 | 21 | 26 | 4.8 | 11.3 | 0.00 | 0.00 | 0.00 | 19 | 1014.1 |
| 20260510103527 | 22 | 31 | 3.2 | 12.9 | 0.00 | 0.00 | 0.00 | 19 | 1014.1 |
| 20260510103026 | 22 | 11 | 3.2 | 12.9 | 0.00 | 0.00 | 0.00 | 18 | 1014.1 |
| 20260510102526 | 22 | 9 | 8.0 | 14.5 | 0.00 | 0.00 | 0.00 | 18 | 1014.0 |
| 20260510102028 | 22 | 38 | 3.2 | 11.3 | 0.00 | 0.00 | 0.00 | 18 | 1014.0 |
| 20260510101525 | 22 | 11 | 6.4 | 11.3 | 0.00 | 0.00 | 0.00 | 18 | 1014.0 |
| 20260510101025 | 22 | 29 | 3.2 | 9.7 | 0.00 | 0.00 | 0.00 | 19 | 1013.9 |
| 20260510100525 | 21 | 49 | 3.2 | 8.0 | 0.00 | 0.00 | 0.00 | 19 | 1014.0 |
| 20260510100024 | 21 | 20 | 3.2 | 4.8 | 0.00 | 0.00 | 0.00 | 19 | 1014.0 |
| 20260510095524 | 21 | 33 | 0.0 | 6.4 | 0.00 | 0.00 | 0.00 | 19 | 1013.9 |
| 20260510095024 | 21 | 34 | 0.0 | 4.8 | 0.00 | 0.00 | 0.00 | 20 | 1013.9 |
| 20260510094528 | 21 | 30 | 0.0 | 4.8 | 0.00 | 0.00 | 0.00 | 21 | 1013.9 |
| 20260510094022 | 21 | 27 | 0.0 | 6.4 | 0.00 | 0.00 | 0.00 | 20 | 1013.9 |
| 20260510093522 | 21 | 30 | 1.6 | 6.4 | 0.00 | 0.00 | 0.00 | 20 | 1013.8 |
| 20260510093031 | 21 | 40 | 1.6 | 6.4 | 0.00 | 0.00 | 0.00 | 20 | 1013.8 |
| 20260510092521 | 21 | 56 | 0.0 | 3.2 | 0.00 | 0.00 | 0.00 | 20 | 1013.7 |
| 20260510092020 | 21 | 56 | 0.0 | 6.4 | 0.00 | 0.00 | 0.00 | 21 | 1013.6 |
| 20260510091521 | 20 | 56 | 0.0 | 3.2 | 0.00 | 0.00 | 0.00 | 20 | 1013.6 |
| 20260510091020 | 20 | 56 | 0.0 | 6.4 | 0.00 | 0.00 | 0.00 | 20 | 1013.6 |
| 20260510090520 | 20 | 56 | 1.6 | 4.8 | 0.00 | 0.00 | 0.00 | 21 | 1013.6 |
| 20260510090020 | 20 | 56 | 0.0 | 3.2 | 0.00 | 0.00 | 0.00 | 20 | 1013.6 |
| 20260510085518 | 20 | 56 | 0.0 | 3.2 | 0.00 | 0.00 | 0.00 | 20 | 1013.6 |
| 20260510085018 | 20 | 56 | 1.6 | 3.2 | 0.00 | 0.00 | 0.00 | 21 | 1013.6 |
| 20260510084527 | 20 | 56 | 0.0 | 1.6 | 0.00 | 0.00 | 0.00 | 22 | 1013.6 |
| 20260510084017 | 20 | 56 | 0.0 | 1.6 | 0.00 | 0.00 | 0.00 | 22 | 1013.6 |
| 20260510083516 | 20 | 56 | 0.0 | 1.6 | 0.00 | 0.00 | 0.00 | 21 | 1013.4 |
| 20260510083016 | 21 | 56 | 0.0 | 1.6 | 0.00 | 0.00 | 0.00 | 21 | 1013.4 |
| 20260510082515 | 21 | 56 | 0.0 | 8.0 | 0.00 | 0.00 | 0.00 | 20 | 1013.4 |
| 20260510082015 | 21 | 67 | 1.6 | 9.7 | 0.00 | 0.00 | 0.00 | 20 | 1013.4 |
| 20260510081523 | 21 | 65 | 4.8 | 9.7 | 0.00 | 0.00 | 0.00 | 20 | 1013.4 |
| 20260510081015 | 21 | 55 | 1.6 | 6.4 | 0.00 | 0.00 | 0.00 | 20 | 1013.4 |
| 20260510080514 | 21 | 105 | 0.0 | 6.4 | 0.00 | 0.00 | 0.00 | 19 | 1013.3 |
| 20260510080019 | 21 | 105 | 0.0 | 6.4 | 0.00 | 0.00 | 0.00 | 20 | 1013.3 |
| 20260510075514 | 21 | 92 | 1.6 | 6.4 | 0.00 | 0.00 | 0.00 | 21 | 1013.3 |
| 20260510075012 | 21 | 92 | 0.0 | 6.4 | 0.00 | 0.00 | 0.00 | 21 | 1013.3 |
| 20260510074512 | 20 | 83 | 0.0 | 6.4 | 0.00 | 0.00 | 0.00 | 21 | 1013.3 |
| 20260510074012 | 20 | 51 | 0.0 | 3.2 | 0.00 | 0.00 | 0.00 | 22 | 1013.4 |
| 20260510073509 | 21 | 51 | 0.0 | 6.4 | 0.00 | 0.00 | 0.00 | 21 | 1013.4 |
| 20260510073009 | 21 | 51 | 0.0 | 6.4 | 0.00 | 0.00 | 0.00 | 21 | 1013.3 |
| 20260510072508 | 21 | 52 | 1.6 | 6.4 | 0.00 | 0.00 | 0.00 | 21 | 1013.3 |
| 20260510072011 | 22 | 276 | 0.0 | 8.0 | 0.00 | 0.00 | 0.00 | 21 | 1013.3 |
| 20260510071507 | 22 | 184 | 4.8 | 9.7 | 0.00 | 0.00 | 0.00 | 20 | 1013.3 |
| 20260510071005 | 22 | 223 | 6.4 | 8.0 | 0.00 | 0.00 | 0.00 | 22 | 1013.2 |
| 20260510070504 | 22 | 254 | 1.6 | 4.8 | 0.00 | 0.00 | 0.00 | 20 | 1013.2 |
| 20260510070004 | 22 | 322 | 0.0 | 3.2 | 0.00 | 0.00 | 0.00 | 20 | 1013.2 |
| 20260510065503 | 22 | 322 | 0.0 | 3.2 | 0.00 | 0.00 | 0.00 | 20 | 1013.1 |
| 20260510065003 | 23 | 317 | 1.6 | 3.2 | 0.00 | 0.00 | 0.00 | 17 | 1013.1 |
| 20260510064506 | 23 | 310 | 0.0 | 8.0 | 0.00 | 0.00 | 0.00 | 16 | 1013.2 |
| 20260510064003 | 24 | 306 | 3.2 | 8.0 | 0.00 | 0.00 | 0.00 | 16 | 1013.1 |
| 20260510063503 | 24 | 308 | 0.0 | 11.3 | 0.00 | 0.00 | 0.00 | 16 | 1013.2 |
| 20260510063004 | 24 | 313 | 1.6 | 12.9 | 0.00 | 0.00 | 0.00 | 15 | 1013.1 |
| 20260510062601 | 24 | 295 | 3.2 | 12.9 | 0.00 | 0.00 | 0.00 | 15 | 1013.1 |
| 20260510062100 | 23 | 316 | 4.8 | 9.7 | 0.00 | 0.00 | 0.00 | 16 | 1013.1 |
| 20260510061558 | 23 | 324 | 3.2 | 9.7 | 0.00 | 0.00 | 0.00 | 17 | 1013.1 |
| 20260510061057 | 22 | 321 | 1.6 | 9.7 | 0.00 | 0.00 | 0.00 | 18 | 1013.1 |
| 20260510060556 | 22 | 307 | 0.0 | 4.8 | 0.00 | 0.00 | 0.00 | 19 | 1013.1 |
| 20260510060054 | 22 | 308 | 0.0 | 6.4 | 0.00 | 0.00 | 0.00 | 19 | 1013.1 |
| 20260510055554 | 23 | 294 | 0.0 | 9.7 | 0.00 | 0.00 | 0.00 | 18 | 1013.1 |
| 20260510055053 | 22 | 294 | 3.2 | 9.7 | 0.00 | 0.00 | 0.00 | 17 | 1013.1 |
| 20260510054553 | 22 | 320 | 0.0 | 6.4 | 0.00 | 0.00 | 0.00 | 18 | 1013.1 |
| 20260510054053 | 22 | 261 | 0.0 | 6.4 | 0.00 | 0.00 | 0.00 | 18 | 1013.1 |
| 20260510053553 | 22 | 230 | 0.0 | 3.2 | 0.00 | 0.00 | 0.00 | 19 | 1013.1 |
| 20260510053053 | 22 | 230 | 0.0 | 3.2 | 0.00 | 0.00 | 0.00 | 18 | 1013.1 |
| 20260510052553 | 22 | 230 | 0.0 | 1.6 | 0.00 | 0.00 | 0.00 | 19 | 1013.1 |
| 20260510052056 | 22 | 230 | 0.0 | 1.6 | 0.00 | 0.00 | 0.00 | 18 | 1013.1 |
| 20260510051552 | 22 | 230 | 0.0 | 1.6 | 0.00 | 0.00 | 0.00 | 18 | 1013.1 |
| 20260510051052 | 23 | 230 | 0.0 | 1.6 | 0.00 | 0.00 | 0.00 | 18 | 1013.1 |
| 20260510050551 | 23 | 230 | 0.0 | 3.2 | 0.00 | 0.00 | 0.00 | 17 | 1013.1 |
| 20260510050052 | 24 | 230 | 0.0 | 8.0 | 0.00 | 0.00 | 0.00 | 16 | 1013.1 |
| 20260510045552 | 24 | 230 | 3.2 | 8.0 | 0.00 | 0.00 | 0.00 | 15 | 1013.1 |
| 20260510045052 | 24 | 231 | 1.6 | 6.4 | 0.00 | 0.00 | 0.00 | 16 | 1013.1 |
| 20260510044551 | 24 | 212 | 1.6 | 6.4 | 0.00 | 0.00 | 0.00 | 16 | 1013.1 |
| 20260510044051 | 24 | 213 | 0.0 | 3.2 | 0.00 | 0.00 | 0.00 | 16 | 1013.0 |
| 20260510043551 | 24 | 213 | 0.0 | 3.2 | 0.00 | 0.00 | 0.00 | 16 | 1013.0 |
| 20260510043056 | 24 | 213 | 0.0 | 1.6 | 0.00 | 0.00 | 0.00 | 17 | 1013.0 |
| 20260510042555 | 25 | 213 | 0.0 | 6.4 | 0.00 | 0.00 | 0.00 | 15 | 1013.0 |
| 20260510042050 | 25 | 213 | 0.0 | 8.0 | 0.00 | 0.00 | 0.00 | 15 | 1013.0 |
| 20260510041550 | 26 | 219 | 3.2 | 8.0 | 0.00 | 0.00 | 0.00 | 13 | 1013.0 |
| 20260510041051 | 26 | 237 | 1.6 | 9.7 | 0.00 | 0.00 | 0.00 | 13 | 1012.9 |
| 20260510040551 | 26 | 225 | 1.6 | 14.5 | 0.00 | 0.00 | 0.00 | 13 | 1012.9 |
| 20260510040053 | 26 | 286 | 4.8 | 14.5 | 0.00 | 0.00 | 0.00 | 13 | 1012.8 |
| 20260510035549 | 26 | 236 | 4.8 | 12.9 | 0.00 | 0.00 | 0.00 | 13 | 1012.8 |
| 20260510035049 | 26 | 276 | 4.8 | 16.1 | 0.00 | 0.00 | 0.00 | 12 | 1012.7 |
| 20260510034551 | 26 | 229 | 6.4 | 16.1 | 0.00 | 0.00 | 0.00 | 12 | 1012.6 |
| 20260510034049 | 26 | 216 | 6.4 | 12.9 | 0.00 | 0.00 | 0.00 | 12 | 1012.6 |
| 20260510033548 | 27 | 232 | 4.8 | 16.1 | 0.00 | 0.00 | 0.00 | 13 | 1012.6 |
| 20260510033110 | 27 | 291 | 8.0 | 16.1 | 0.00 | 0.00 | 0.00 | 12 | 1012.6 |
| 20260510032548 | 27 | 232 | 4.8 | 16.1 | 0.00 | 0.00 | 0.00 | 12 | 1012.5 |
| 20260510032050 | 27 | 222 | 6.4 | 16.1 | 0.00 | 0.00 | 0.00 | 12 | 1012.5 |
| 20260510031550 | 27 | 257 | 9.7 | 14.5 | 0.00 | 0.00 | 0.00 | 11 | 1012.4 |
| 20260510031043 | 27 | 239 | 8.0 | 14.5 | 0.00 | 0.00 | 0.00 | 11 | 1012.4 |
| 20260510030541 | 27 | 272 | 8.0 | 16.1 | 0.00 | 0.00 | 0.00 | 11 | 1012.3 |
| 20260510030041 | 28 | 242 | 6.4 | 16.1 | 0.00 | 0.00 | 0.00 | 11 | 1012.2 |
| 20260510025541 | 28 | 254 | 6.4 | 14.5 | 0.00 | 0.00 | 0.00 | 11 | 1012.2 |
| 20260510025040 | 28 | 215 | 8.0 | 16.1 | 0.00 | 0.00 | 0.00 | 11 | 1012.1 |
| 20260510024545 | 28 | 221 | 9.7 | 16.1 | 0.00 | 0.00 | 0.00 | 11 | 1012.1 |
| 20260510024043 | 28 | 211 | 6.4 | 16.1 | 0.00 | 0.00 | 0.00 | 11 | 1012.0 |
| 20260510023540 | 28 | 248 | 8.0 | 19.3 | 0.00 | 0.00 | 0.00 | 11 | 1011.9 |
| 20260510023041 | 29 | 257 | 11.3 | 19.3 | 0.00 | 0.00 | 0.00 | 11 | 1011.8 |
| 20260510022540 | 29 | 248 | 9.7 | 17.7 | 0.00 | 0.00 | 0.00 | 11 | 1011.8 |
| 20260510022039 | 29 | 248 | 8.0 | 17.7 | 0.00 | 0.00 | 0.00 | 11 | 1011.7 |
| 20260510021540 | 29 | 232 | 9.7 | 20.9 | 0.00 | 0.00 | 0.00 | 11 | 1011.6 |
| 20260510021040 | 29 | 286 | 9.7 | 20.9 | 0.00 | 0.00 | 0.00 | 10 | 1011.5 |
| 20260510020540 | 30 | 261 | 9.7 | 19.3 | 0.00 | 0.00 | 0.00 | 11 | 1011.4 |
| 20260510020042 | 30 | 248 | 9.7 | 17.7 | 0.00 | 0.00 | 0.00 | 10 | 1011.4 |
| 20260510015539 | 30 | 281 | 8.0 | 16.1 | 0.00 | 0.00 | 0.00 | 10 | 1011.4 |
| 20260510015039 | 30 | 248 | 8.0 | 16.1 | 0.00 | 0.00 | 0.00 | 11 | 1011.3 |
| 20260510014539 | 30 | 228 | 6.4 | 19.3 | 0.00 | 0.00 | 0.00 | 10 | 1011.3 |
| 20260510014040 | 30 | 221 | 8.0 | 19.3 | 0.00 | 0.00 | 0.00 | 11 | 1011.2 |
| 20260510013539 | 30 | 224 | 9.7 | 17.7 | 0.00 | 0.00 | 0.00 | 10 | 1011.1 |
| 20260510013038 | 30 | 251 | 9.7 | 16.1 | 0.00 | 0.00 | 0.00 | 10 | 1011.1 |
| 20260510012538 | 31 | 252 | 8.0 | 19.3 | 0.00 | 0.00 | 0.00 | 10 | 1011.1 |
| 20260510012038 | 31 | 232 | 9.7 | 19.3 | 0.00 | 0.00 | 0.00 | 10 | 1011.1 |
| 20260510011549 | 31 | 252 | 11.3 | 19.3 | 0.00 | 0.00 | 0.00 | 10 | 1011.0 |
| 20260510011037 | 31 | 204 | 9.7 | 16.1 | 0.00 | 0.00 | 0.00 | 10 | 1011.0 |
| 20260510010537 | 31 | 224 | 8.0 | 12.9 | 0.00 | 0.00 | 0.00 | 10 | 1011.0 |
| 20260510010037 | 31 | 234 | 6.4 | 12.9 | 0.00 | 0.00 | 0.00 | 10 | 1011.0 |
| 20260510005537 | 31 | 198 | 6.4 | 12.9 | 0.00 | 0.00 | 0.00 | 10 | 1010.9 |
| 20260510005038 | 31 | 210 | 6.4 | 16.1 | 0.00 | 0.00 | 0.00 | 9 | 1011.0 |
| 20260510004540 | 32 | 184 | 9.7 | 16.1 | 0.00 | 0.00 | 0.00 | 9 | 1011.0 |
| 20260510004035 | 32 | 209 | 6.4 | 12.9 | 0.00 | 0.00 | 0.00 | 10 | 1011.0 |
| 20260510003535 | 32 | 194 | 6.4 | 12.9 | 0.00 | 0.00 | 0.00 | 9 | 1011.0 |
| 20260510003058 | 32 | 267 | 4.8 | 12.9 | 0.00 | 0.00 | 0.00 | 10 | 1011.0 |
| 20260510002534 | 32 | 231 | 8.0 | 20.9 | 0.00 | 0.00 | 0.00 | 9 | 1011.0 |
| 20260510002034 | 32 | 188 | 8.0 | 20.9 | 0.00 | 0.00 | 0.00 | 9 | 1011.0 |
| 20260510001539 | 32 | 240 | 4.8 | 19.3 | 0.00 | 0.00 | 0.00 | 9 | 1011.0 |
| 20260510001034 | 32 | 196 | 9.7 | 16.1 | 0.00 | 0.00 | 0.00 | 10 | 1011.0 |
| 20260510000533 | 32 | 152 | 9.7 | 20.9 | 0.00 | 0.00 | 0.00 | 9 | 1011.1 |
| 20260510000037 | 32 | 218 | 9.7 | 16.1 | 0.00 | 0.00 | 0.00 | 10 | 1011.1 |
| 20260509235532 | 32 | 281 | 6.4 | 16.1 | 0.00 | 0.00 | 0.00 | 10 | 1011.1 |
| 20260509235032 | 32 | 209 | 6.4 | 16.1 | 0.00 | 0.00 | 0.00 | 9 | 1011.2 |
| 20260509234536 | 32 | 206 | 8.0 | 14.5 | 0.00 | 0.00 | 0.00 | 9 | 1011.2 |
| 20260509234032 | 33 | 218 | 6.4 | 14.5 | 0.00 | 0.00 | 0.00 | 9 | 1011.2 |
| 20260509233531 | 33 | 136 | 8.0 | 16.1 | 0.00 | 0.00 | 0.00 | 10 | 1011.3 |
| 20260509233032 | 33 | 267 | 3.2 | 16.1 | 0.00 | 0.00 | 0.00 | 10 | 1011.3 |
| 20260509232532 | 33 | 242 | 3.2 | 17.7 | 0.00 | 0.00 | 0.00 | 10 | 1011.3 |
| 20260509232031 | 33 | 276 | 9.7 | 17.7 | 0.00 | 0.00 | 0.00 | 9 | 1011.4 |
| 20260509231539 | 33 | 210 | 4.8 | 20.9 | 0.00 | 0.00 | 0.00 | 9 | 1011.4 |
| 20260509231032 | 33 | 166 | 11.3 | 20.9 | 0.00 | 0.00 | 0.00 | 9 | 1011.4 |
| 20260509230529 | 33 | 158 | 9.7 | 20.9 | 0.00 | 0.00 | 0.00 | 9 | 1011.4 |
| 20260509230033 | 33 | 167 | 8.0 | 16.1 | 0.00 | 0.00 | 0.00 | 9 | 1011.5 |
| 20260509225530 | 33 | 156 | 8.0 | 17.7 | 0.00 | 0.00 | 0.00 | 9 | 1011.5 |
| 20260509225027 | 33 | 176 | 4.8 | 17.7 | 0.00 | 0.00 | 0.00 | 9 | 1011.7 |
| 20260509224529 | 33 | 186 | 11.3 | 17.7 | 0.00 | 0.00 | 0.00 | 9 | 1011.7 |
| 20260509224027 | 33 | 359 | 3.2 | 20.9 | 0.00 | 0.00 | 0.00 | 9 | 1011.6 |
| 20260509223526 | 33 | 323 | 6.4 | 20.9 | 0.00 | 0.00 | 0.00 | 9 | 1011.8 |
| 20260509223028 | 33 | 131 | 9.7 | 19.3 | 0.00 | 0.00 | 0.00 | 9 | 1011.9 |
| 20260509222524 | 33 | 129 | 6.4 | 12.9 | 0.00 | 0.00 | 0.00 | 9 | 1011.9 |
| 20260509222025 | 33 | 189 | 8.0 | 19.3 | 0.00 | 0.00 | 0.00 | 9 | 1012.0 |
| 20260509221524 | 33 | 164 | 11.3 | 19.3 | 0.00 | 0.00 | 0.00 | 9 | 1012.0 |